RS-30
1 32953U 08025A 14345.30093284 .00000010 00000-0 -13620-7 0 5451
2 32953 082.5023 091.0871 0019578 130.5945 229.6842 12.43053515297265
METEOR-M
1 35865U 09049A 14345.26782080 .00000223 00000-0 12020-3 0 1558
2 35865 098.5274 027.1005 0001968 318.8786 041.2234 14.21964542271503
RS-38
1 35869U 09049E 14345.26717701 .00000154 00000-0 88276-4 0 593
2 35869 098.5202 026.8204 0003915 310.2187 049.8646 14.22252910271545
JUGNU
1 37839U 11058B 14344.94427734 .00000434 00000-0 89992-4 0 7508
2 37839 019.9608 263.6147 0019046 131.8055 301.2429 14.12387927163574
SRMSAT
1 37841U 11058D 14344.89767447 .00000415 00000-0 83959-4 0 7543
2 37841 019.9720 286.7760 0012057 064.5651 333.2371 14.10414636163339
RAX-2
1 37853U 11061D 14344.35051506 .00010045 00000-0 65495-3 0 9842
2 37853 101.7040 098.2845 0207804 266.2165 167.2708 14.92218779168901
AUBIESAT
1 37854U 11061E 14345.30127091 .00011055 00000-0 69335-3 0 9829
2 37854 101.7088 102.2313 0204827 259.6090 153.2425 14.93886515169121
HRBE
1 37855U 11061F 14345.30339670 .00009924 00000-0 63248-3 0 31
2 37855 101.7077 101.2936 0207745 261.5050 096.2563 14.93005174169077
RS-39
1 38051U 11062C 14288.65876392 .70201582 12497-4 27925-2 0 413
2 38051 051.5964 324.1908 0006422 269.6897 186.8903 16.43533377153081
E-STAR
1 38079U 12006C 14345.73705891 .00329964 00000-0 14875-2 0 1007
2 38079 069.4256 229.7683 0173509 091.4983 270.6752 15.64677100150582
GOLIAT
1 38085U 12006J 14345.39508220 .00225593 16310-4 14419-2 0 6189
2 38085 069.4329 243.7444 0221521 098.4337 018.5731 15.49508929150197
HORYU-2
1 38340U 12025D 14345.13214886 .00002309 00000-0 36442-3 0 423
2 38340 098.2891 305.6246 0011668 341.4287 018.6493 14.73348350137835
RS-40
1 38735U 12041C 14345.26375491 .00000040 00000-0 21992-3 0 8492
2 38735 082.4733 177.1400 0016519 229.3265 130.6380 12.42564968107574
PROITERES
1 38756U 12047B 14345.30073252 .00001636 00000-0 24876-3 0 4870
2 38756 098.2248 076.4924 0012402 173.6550 186.4816 14.75367129121296
BEESAT-3
1 39134U 13015E 14344.91130049 .00009958 00000-0 64103-3 0 7876
2 39134 064.8753 298.2312 0035743 279.3286 080.3795 15.08280716 90268
BEESAT-2
1 39136U 13015G 14344.99772443 .00008240 00000-0 54736-3 0 7678
2 39136 064.8757 299.0964 0036255 279.0690 080.6329 15.07259830 90269
LO-75
1 39382U 13064C 14295.69194059 .07301741 00000-0 36367-2 0 4875
2 39382 040.4713 030.2705 0002289 341.7175 018.4586 16.19795749470823
ZACUBE-1
1 39417U 13066B 14344.41625503 .00001665 00000-0 22599-3 0 4850
2 39417 097.7559 048.8644 0061920 032.2345 328.2627 14.78857810 56739
TRITON-1
1 39427U 13066M 14344.46438870 .00001238 00000-0 21204-3 0 3379
2 39427 097.7430 041.1164 0117949 049.8083 311.3375 14.65985805 56215
DELFIN3XT
1 39428U 13066N 14345.10049120 .00001921 00000-0 33191-3 0 3410
2 39428 097.7425 040.4296 0127430 051.2542 309.9969 14.64279237 56217
GOMX-1
1 39430U 13066Q 14345.41452690 .00002043 00000-0 38964-3 0 637
2 39430 097.7376 036.8853 0156264 061.1057 300.5715 14.57414648 56025
MO-76
1 39436U 13066W 14344.16820282 .00017959 00000-0 15759-2 0 4306
2 39436 097.7638 055.5058 0023361 026.2785 333.9616 14.96459313 57121
LO-74
1 39440U 13066AA 14345.25480387 .00001350 00000-0 20283-3 0 3340
2 39440 097.7513 046.5785 0083824 035.6359 325.0407 14.73749248 56657
PUCPSAT-1
1 39442U 13066AC 14344.45947007 .00003376 00000-0 37683-3 0 3331
2 39442 097.7622 053.7543 0034363 027.9792 332.3262 14.87234310 55801
SHINAISAT
1 39572U 14009A 14328.13084988 .28848087 76253-5 66603-3 0 4474
2 39572 064.9728 197.0096 0013534 259.7861 100.1802 16.45181032 42403
TEIKYOSAT
1 39576U 14009E 14297.85867254 .09345816 76764-5 25176-3 0 4374
2 39576 064.9818 300.5833 0008491 317.3597 044.3862 16.45008906 37698
CO-77
1 39577U 14009F 14244.78324653 .10543803 76292-5 32273-3 0 3795
2 39577 064.9920 123.7668 0014904 269.7208 091.1897 16.43552757 29380
SPROUT
1 39770U 14029E 14345.40618120 .00001717 00000-0 21673-3 0 2194
2 39770 097.8747 079.9011 0011153 094.1796 266.0674 14.83162560 29798
POPSAT-HIP1
1 40028U 14033U 14345.32044476 .00003818 00000-0 44298-3 0 5370
2 40028 097.9707 240.2815 0016053 076.2202 284.0756 14.85925378 25877
EO-80
1 40032U 14033Y 14345.28065571 .00003435 00000-0 40199-3 0 5202
2 40032 097.9670 240.0932 0013734 073.0212 287.2506 14.85668765 25870
VELOX-1
1 40057U 14034E 14345.33781544 .00003811 00000-0 57649-3 0 5263
2 40057 098.2376 055.3307 0012715 118.0037 242.2432 14.74780395 24184
DAURIA DX 1
1 40071U 14037C 14345.33301341 .00001757 00000-0 24029-3 0 4975
2 40071 098.3836 043.8483 0009706 118.7686 241.4492 14.79888321 23002
UKUBE-1
1 40074U 14037F 14345.36318282 .00003626 00000-0 47362-3 0 4986
2 40074 098.3845 044.1505 0005819 125.2399 234.9353 14.81144949 23028
CHASQUI-1
1 40117U 98067ET 14345.35135934 .00246076 00000-0 15046-2 0 3507
2 40117 051.6399 293.7006 0010682 090.6384 044.7573 15.76008452 17884
HODOYOSHI-1
1 40299U 14070B 14345.39629811 .00006660 00000-0 33570-3 0 1128
2 40299 097.4741 064.3654 0014986 070.0264 357.8036 15.17389715 5311
CHUBUSAT-1
1 40300U 14070C 14345.37995497 .00007282 00000-0 38735-3 0 1135
2 40300 097.4723 064.2272 0024648 067.8848 002.3817 15.15289920 5300
QSAT-EOS
1 40301U 14070D 14345.71978652 .00012724 00000-0 71436-3 0 1219
2 40301 097.4686 064.4116 0036054 065.0692 094.5223 15.12901661 5358
TSUBAME
1 40302U 14070E 14345.34729678 .00009467 00000-0 56381-3 0 1123
2 40302 097.4660 063.9118 0046242 067.4716 293.1382 15.10501697 5288
